Regional Weather Roundup
Issued by NWS

Home | Current Version | Previous Version | Text Only | Print | Product List | Glossary Off
Versions: 1 2 3 4 5 6 7 8 9 10 11 12 13 14 15 16 17 18 19 20 21 22 23 24 25 26 27 28 29 30 31 32 33 34 35 36 37 38 39 40 41 42 43 44 45 46 47 48 49 50

410
ASUS45 KTFX 230810
RWRMT
MONTANA REGIONAL WEATHER ROUNDUP
NATIONAL WEATHER SERVICE GREAT FALLS MT
200 AM MDT SUN APR 23 2017

NOTE: "FAIR" INDICATES FEW OR NO CLOUDS BELOW 12000 FEET WITH NO
SIGNIFICANT WEATHER AND/OR OBSTRUCTIONS TO VISIBILITY.

MTZ001>007-043-230900-
WEST OF THE DIVIDE

CITY           SKY/WX    TMP DP  RH WIND       PRES   REMARKS
KALISPELL      MOCLDY    46  36  68 CALM      29.86R
MISSOULA       MOCLDY    47  36  65 VRB5      29.85F
BUTTE          CLOUDY    44  28  53 CALM      29.90F
MULLAN PASS    CLOUDY    36  31  82 SW5       29.90F
ANACONDA         N/A     43  27  52 S6        29.88F
DEER LODGE       N/A     43  30  61 CALM      29.89F
EUREKA           N/A     46  39  76 S5        29.87F
HAMILTON         N/A     46  34  61 CALM      29.84F
LIBBY            N/A     46  39  76 SE3       29.88F
PLAINS           N/A     52  36  54 W2        29.89F
RONAN            N/A     45  36  70 CALM      29.91S
$$

MTZ008-052>055-230900-
SOUTHWEST MONTANA

CITY           SKY/WX    TMP DP  RH WIND       PRES   REMARKS
BOZEMAN        PTCLDY    41  33  73 SE12      29.88F
DILLON         CLOUDY    45  29  53 S6        29.90F
W YELLOWSTONE  CLOUDY    30  27  86 CALM      30.00F
ENNIS          CLEAR     46  27  46 S12       29.96F
THREE FORKS      N/A     50  50 100 CALM      29.88F
$$

MTZ009-010-012-014-046-048-049-054-230900-
EAST SLOPES AND CENTRAL MONTANA

CITY           SKY/WX    TMP DP  RH WIND       PRES   REMARKS
CUT BANK       MOCLDY    40  38  93 SE8       29.87F
GREAT FALLS    CLOUDY    41  38  89 NE3       29.84F
MALMSTROM AFB  MOCLDY    44  41  88 CALM      29.84F
HELENA         CLOUDY    47  35  63 CALM      29.84F
AUGUSTA          N/A     38  38  98 N12       29.85F WCI  31
BOWMANS CRNR     N/A     47  32  54 CALM      29.83F
CHOTEAU          N/A     37  37 100 N7        29.88F
FAIRFIELD      MOCLDY    38  35  91 N3        29.85F
POWER            N/A     41  38  91 NE5       29.83F
RAYNESFORD     MOCLDY    45  35  67 CALM      29.85F
ULM            MOCLDY    42  38  84 S3        29.84F
$$

MTZ011-013-016-021-045-047-050-051-230900-
NORTH CENTRAL MONTANA

CITY           SKY/WX    TMP DP  RH WIND       PRES   REMARKS
HAVRE          MOCLDY    45  41  86 E24       29.87F
LEWISTOWN      PTCLDY    45  37  73 SE6       29.86F
N BAR RANCH      N/A     41  34  75 SW6       29.90F
CHINOOK          N/A     45  41  87 E16G22    29.91F
DENTON         MOCLDY    43  39  84 NE6       29.82F
FORT BENTON      N/A     48  39  71 MISG      29.85F
GEYSER         MOCLDY    45  36  72 SW9       29.84F
GRASS RANGE    MOCLDY    42  38  84 W6        29.84F
JUDITH GAP     MOCLDY    43  36  75 SW14      29.88F
STANFORD       MOCLDY    43  35  74 CALM      29.86F
WINIFRED       MOCLDY    42  40  89 E10       29.85F
$$

MTZ017>020-022>027-061-062-230900-
NORTHEAST MONTANA

CITY           SKY/WX    TMP DP  RH WIND       PRES   REMARKS
GLASGOW        CLOUDY    38  33  82 E25G31    29.96F WCI  27
JORDAN           N/A     44  40  85 E8        29.92F
SIDNEY         CLOUDY    39  32  76 E15       30.06F WCI  31
WOLF POINT     CLOUDY    40  34  79 E18       30.03F
MALTA          CLOUDY    43  37  81 E14G20    29.94F
PLENTYWOOD       N/A     34  30  86 E15G21    30.09F WCI  24
POPLAR           N/A     39  34  81 E17       30.04F WCI  30
SCOBEY           N/A     34  27  76 E20       30.02  WCI  23
$$

MTZ028>42-056>058-230900-
SOUTHCENTRAL AND SOUTHEAST MONTANA

CITY           SKY/WX    TMP DP  RH WIND       PRES   REMARKS
BAKER          CLOUDY    41  38  89 E20       29.96S
BILLINGS       CLOUDY    51  36  56 CALM      29.88F
LIVINGSTON     CLOUDY    45  38  76 E6        29.89F
MILES CITY     PTCLDY    45  41  86 NE14      29.91F
BIG TIMBER     CLEAR     41  37  87 SW7       29.92F
EKALAKA          N/A     46  37  70 SE12      29.90
LAUREL           N/A     45  33  62 CALM      29.88F
ROUNDUP          N/A     45  36  70 NW3       29.80F
$$

REGIONAL REPORTS...DAKOTAS

CITY           SKY/WX    TMP DP  RH WIND       PRES   REMARKS
WILLISTON      CLOUDY    37  30  75 E13       30.11F WCI  29
MINOT          FLURRIES  32  25  75 NE15      30.18F WCI  22
DICKINSON      CLOUDY    34  30  85 E20G26    30.02F WCI  23
BEACH          CLOUDY    36  36 100 E18       30.03F WCI  25
TIOGA          CLOUDY    32  32 100 E24       30.13F WCI  19
WATFORD CITY   CLOUDY    34  30  86 E16G24    30.09S WCI  23
BISMARCK       CLOUDY    37  32  82 E18G24    30.13S WCI  27
GRAND FORKS    CLOUDY    33  22  63 N18       30.24S WCI  22
FARGO          CLOUDY    35  32  88 N15       30.17S WCI  25
BUFFALO SD       N/A     45  42  89 NE18      29.86F
RAPID CITY     CLEAR     41  32  70 SE9       29.97F
$$

REGIONAL REPORTS...WYOMING/IDAHO/WASHINGTON

CITY           SKY/WX    TMP DP  RH WIND       PRES   REMARKS
GILLETTE       CLOUDY    47  34  60 S20       29.90F
SHERIDAN       CLOUDY    38  35  89 W5        29.91S
BUFFALO WY     CLOUDY    42  31  64 SW6       29.92F
CODY           CLOUDY    41  37  86 CALM      29.95F
YELLOWSTONE LA   N/A     28  25  88 CALM      30.06F
IDAHO FALLS    PTCLDY    42  36  79 NW3       29.96F
SALMON         PTCLDY    45  30  57 CALM      29.85F
BOISE          CLOUDY    61  34  36 S18G30    29.83F
SPOKANE        CLOUDY    48  39  71 S8        29.87F
$$

REGIONAL REPORTS...ALBERTA

CITY           SKY/WX    TMP DP  RH WIND       PRES   REMARKS
EDMONTON       LGT SNOW  30  25  80 E10       30.07F WCI  21
CALGARY        LGT RAIN  36  34  93 E13       29.90F WCI  27
LETHBRIDGE     MOCLDY    36  34  93 SE7       29.85F WCI  30
MEDICINE HAT   CLOUDY    43  39  87 E15G23    29.91F
WATERTON GATE    N/A     39  36  87 N3          N/A
CARDSTON         N/A     41  39  93 SW5         N/A
MILK RIVER       N/A     41  37  87 S6          N/A
$$

REGIONAL REPORTS...SASKATCHEWAN

CITY           SKY/WX    TMP DP  RH WIND       PRES   REMARKS
SWIFT CURRENT  CLOUDY    37  32  81 E17G23    30.03F WCI  28
REGINA         CLOUDY    36  27  69 E15       30.15F WCI  26
SASKATOON      CLOUDY    34  23  64 E10       30.19F WCI  26
VAL MARIE        N/A     37  36  93 E22G31      N/A  WCI  27
ASSINIBOIA       N/A     34  21  60 E10         N/A  WCI  26
$$




USA.gov is the U.S. government's official web portal to all federal, state and local government web resources and services.